Theta_e
353 351 350 347 342 338 335 333 332 332 331 331 331 331 331 330 331 331 332 333 334 337 339 340 342 343 343 341 339 338 337 336 335 335 336 338 340 340 340 340 339 337 335 335 338 340 339 340 338 331 330 335 337 338 340 342 341 340 339 337 336 332 328 328 328 330 334 336 337 340 340 338 337 337 337 338 337 336 334 333 331 330 327 326 325
355 352 351 348 345 341 337 335 334 333 332 332 331 331 331 331 331 333 333 334 334 335 337 339 342 345 345 343 341 338 337 336 335 334 334 335 337 338 338 339 339 337 336 335 337 339 339 339 339 336 332 331 334 335 336 337 337 335 333 332 330 328 326 326 325 325 328 331 334 338 339 339 339 338 337 338 337 336 336 336 335 334 331 329 327
356 354 352 350 346 342 339 338 336 335 335 333 332 331 331 332 332 333 333 334 334 334 336 339 342 344 345 344 343 340 337 336 335 335 334 334 335 336 336 336 337 337 337 336 336 338 339 338 337 337 335 331 329 331 333 332 331 330 329 328 327 326 325 324 324 324 324 326 330 334 336 337 338 337 337 337 337 338 338 337 336 334 333 331 330
358 356 353 351 348 346 342 339 338 337 336 334 333 333 332 333 333 333 334 334 335 335 335 339 342 343 344 344 343 340 338 336 335 335 334 335 334 335 336 335 335 335 336 336 337 337 337 337 337 337 336 332 328 328 331 330 328 326 326 326 326 325 325 324 324 324 323 324 326 330 334 336 338 338 338 338 338 338 338 337 336 334 332 330 330
359 358 354 351 350 348 346 342 340 338 337 336 334 333 333 334 333 334 334 335 336 337 338 339 342 343 343 342 341 340 338 337 336 335 334 334 334 335 336 335 335 335 334 335 335 336 336 336 336 336 336 334 330 327 327 328 327 326 326 326 326 326 326 326 325 323 323 323 324 325 328 332 335 336 337 338 337 337 337 338 337 336 334 331 330
361 359 358 355 352 349 347 345 342 339 337 336 335 334 334 334 334 334 334 335 336 337 339 340 341 341 341 341 340 338 338 338 337 336 334 334 334 334 335 335 336 336 335 334 334 335 336 336 336 336 337 336 334 330 327 326 327 327 327 327 326 326 326 327 327 326 325 324 324 324 325 327 330 333 335 336 337 338 339 339 339 338 337 334 332
364 362 361 358 355 351 348 345 342 339 338 336 335 335 335 335 335 335 335 337 337 338 339 339 339 339 340 341 341 339 338 338 338 337 337 336 336 336 335 335 336 336 336 335 335 334 334 335 336 336 336 336 336 335 332 329 326 326 327 326 326 326 326 327 329 330 329 328 327 325 326 326 328 332 335 338 340 340 339 339 338 338 338 336 336
366 365 363 361 358 354 349 345 342 339 338 337 336 335 335 335 336 336 336 337 338 338 338 338 337 339 340 340 340 340 340 340 340 340 340 339 339 339 338 337 336 337 337 336 336 336 334 334 334 335 335 335 335 336 336 334 330 328 326 326 326 326 326 326 328 329 330 331 330 328 327 328 329 332 336 340 342 340 337 337 338 339 339 338 338
367 367 365 364 361 356 352 348 344 342 340 338 337 336 336 336 337 338 338 337 336 337 339 339 338 338 339 340 340 341 343 343 342 341 341 340 340 341 340 339 338 338 338 338 338 337 336 335 334 333 333 333 334 335 336 337 336 333 330 327 327 327 327 327 327 328 330 331 331 331 330 330 329 330 333 335 335 334 334 336 338 340 340 339 339
368 367 366 365 363 360 356 351 348 346 344 341 338 337 337 337 338 339 339 338 337 338 339 341 341 340 340 341 343 345 346 345 343 343 341 340 340 341 341 341 340 340 340 340 340 339 337 335 334 333 333 333 333 334 335 336 337 337 337 333 330 328 327 327 328 328 329 330 330 330 331 330 328 327 327 328 329 330 333 336 339 340 340 339 338
367 367 367 366 365 363 360 356 352 349 346 343 340 339 338 339 339 340 341 340 338 339 340 341 343 344 344 345 346 347 347 346 345 345 344 344 343 343 343 342 342 341 341 341 340 339 338 337 336 336 335 335 334 334 334 336 337 339 339 339 336 333 330 328 329 327 328 329 329 329 330 329 328 327 326 326 328 331 333 337 340 341 340 339 338
367 367 367 366 365 364 362 359 355 351 348 345 343 340 340 340 340 341 342 341 341 340 340 342 344 345 347 348 350 350 348 347 348 347 347 346 345 345 345 344 344 343 342 340 340 339 338 339 339 338 338 338 337 336 335 335 337 340 342 341 340 337 334 333 331 330 329 329 329 329 328 328 328 328 326 326 329 332 334 338 340 341 340 339 338
365 366 366 366 365 365 363 362 358 354 351 347 345 344 344 343 343 342 341 341 342 341 340 341 343 347 349 350 351 350 350 349 350 351 350 349 349 347 346 346 346 344 344 342 340 339 340 341 341 341 340 340 340 340 340 339 340 342 344 344 343 341 339 338 336 334 333 332 332 330 329 329 329 329 327 327 329 333 336 339 341 341 340 339 338
365 365 366 365 365 364 363 362 361 358 355 351 349 348 347 344 343 343 342 342 342 343 342 343 344 346 349 351 351 350 349 349 350 351 351 351 351 350 349 348 347 347 345 344 342 342 341 341 342 341 341 340 341 342 342 343 343 344 345 346 345 343 343 343 341 339 337 336 335 333 331 331 331 330 329 328 330 334 338 340 342 342 341 340 339
364 365 365 365 364 363 363 361 360 360 358 356 353 351 349 346 345 345 343 342 342 342 343 343 343 344 346 350 352 352 350 349 348 350 350 351 351 352 352 352 351 350 348 347 346 345 344 343 343 341 341 341 341 343 343 344 344 345 346 346 345 344 344 343 342 341 341 339 337 335 333 332 332 332 332 331 332 336 340 341 342 342 341 340 340
363 363 364 364 363 363 363 361 359 359 359 357 356 354 352 349 347 345 345 344 344 343 343 343 343 343 344 346 349 351 352 352 351 351 351 352 354 354 355 355 355 354 352 351 349 348 348 347 346 344 343 343 343 344 345 346 346 346 347 347 347 346 345 342 340 341 343 341 340 339 337 335 334 334 334 334 334 337 341 342 342 342 341 340 340
362 362 362 362 362 362 362 362 361 359 358 358 357 356 354 352 349 347 347 347 347 346 344 343 343 344 345 345 345 347 350 354 355 355 355 356 357 357 358 358 358 357 356 355 354 352 351 350 349 348 347 346 346 346 346 348 349 349 349 349 349 349 346 344 343 344 345 344 343 342 341 339 337 336 336 336 336 339 341 343 342 342 341 340 340
360 360 361 360 362 362 361 361 361 359 358 358 357 357 356 355 353 352 350 349 348 347 346 346 346 347 347 348 347 348 349 351 355 356 358 359 360 360 360 360 359 359 359 359 358 356 355 353 351 351 350 349 349 349 349 350 350 349 350 350 351 351 347 347 347 346 345 347 346 345 344 343 341 339 339 338 338 340 342 343 343 342 341 341 340
357 359 360 359 360 362 362 361 361 361 360 359 358 358 358 356 356 354 354 352 350 350 350 351 351 352 352 352 352 352 353 354 354 356 358 359 361 362 363 363 362 362 361 361 360 360 359 357 356 354 353 352 353 353 352 352 351 350 351 351 352 350 348 348 348 346 346 346 346 345 345 344 343 342 341 341 340 341 342 343 343 343 343 342 341
353 355 357 358 358 359 361 362 362 361 362 360 360 360 359 359 358 358 357 357 355 355 354 354 354 355 355 355 355 355 356 357 358 358 359 359 360 361 363 364 364 364 364 363 363 362 361 361 359 358 356 355 355 356 356 355 354 353 352 353 353 350 348 348 348 347 347 347 346 346 345 344 343 344 343 343 342 342 342 343 343 344 343 343 342
350 351 354 356 356 357 358 361 362 361 362 362 362 360 360 361 361 360 360 360 359 358 358 356 356 356 357 358 358 359 359 359 359 360 361 361 361 361 362 363 363 364 365 364 364 364 364 363 362 361 360 358 357 358 358 357 358 356 355 354 353 352 351 350 349 349 349 349 348 348 347 346 345 344 344 343 343 342 342 342 343 344 343 344 342
351 351 352 353 355 357 357 359 361 362 362 364 362 362 362 361 363 363 362 362 362 362 361 359 358 358 358 359 360 360 361 360 361 362 362 362 362 361 362 361 362 362 363 363 364 365 365 365 364 362 362 361 359 358 358 358 358 359 358 357 356 355 354 353 353 352 352 351 350 349 349 347 346 345 344 344 344 342 342 342 342 343 343 344 344
354 352 352 351 353 355 355 357 360 361 362 364 363 364 363 362 364 364 364 364 364 363 363 362 361 360 360 360 360 361 361 361 361 362 362 363 363 362 362 362 362 362 362 362 362 363 363 364 363 362 362 362 361 361 360 359 359 359 359 359 359 359 358 357 356 354 353 353 352 351 350 349 347 346 345 344 343 342 341 341 342 342 343 344 344
355 355 354 353 352 352 353 356 358 359 362 363 364 364 363 363 364 365 365 365 365 365 365 364 363 363 362 362 362 361 362 363 363 364 364 364 364 364 363 363 363 362 362 362 361 362 362 362 362 362 362 361 361 361 361 360 360 359 359 359 359 360 358 358 358 357 355 354 353 352 351 350 348 348 346 345 344 343 342 342 342 342 343 344 344
356 356 356 354 353 352 353 354 356 358 360 362 363 363 363 363 364 365 366 367 366 366 365 364 364 364 363 363 362 362 363 363 364 365 365 365 365 365 365 365 364 363 362 362 362 363 362 362 362 361 361 361 361 361 360 360 360 360 359 359 359 358 357 357 358 358 357 356 355 354 353 351 350 349 348 346 345 345 344 343 342 343 343 343 343
356 355 357 357 355 355 355 356 358 360 361 362 363 362 363 364 365 366 367 368 367 366 366 366 366 366 365 365 364 363 363 363 364 364 365 365 365 364 363 364 363 364 364 364 363 363 363 362 363 362 362 361 361 361 361 361 361 360 360 359 359 359 359 358 359 358 358 357 356 355 354 353 352 350 349 347 346 345 344 343 343 342 342 342 342
356 356 358 360 358 358 358 359 361 362 363 364 364 364 364 366 367 368 368 368 368 368 367 367 367 367 367 366 365 365 365 365 364 365 364 364 363 362 363 363 363 364 365 365 364 364 363 363 363 362 362 362 362 361 361 361 360 361 361 360 359 359 358 359 359 358 358 358 357 356 355 354 352 351 349 347 346 345 344 343 343 342 341 341 340
362 361 361 361 362 362 362 362 363 364 364 366 367 367 367 368 369 369 370 369 369 368 368 368 367 368 368 367 366 366 365 365 364 364 363 362 362 361 362 362 362 362 362 362 362 362 362 362 362 362 361 361 361 360 361 361 360 360 360 360 360 360 359 359 359 358 358 358 357 356 355 353 352 351 350 348 346 345 344 343 342 341 340 340 339
366 365 364 364 363 364 365 365 366 366 368 369 370 370 371 370 370 370 370 369 369 368 369 369 367 367 367 367 367 367 366 365 365 364 363 362 362 362 361 361 361 361 360 361 361 360 361 361 361 361 361 361 361 361 361 361 360 360 360 360 359 359 359 359 359 358 358 358 357 355 353 351 350 349 348 347 346 345 344 342 341 340 340 339 338
367 367 366 366 365 364 364 366 368 369 370 370 371 370 370 370 370 370 370 370 369 368 368 368 366 366 366 366 366 366 365 365 364 362 362 362 361 361 361 361 361 360 360 360 360 360 359 357 354 352 350 350 352 353 355 356 358 358 358 359 359 360 360 360 360 359 359 358 357 355 352 350 348 347 346 346 345 344 344 342 340 340 340 338 337
366 366 366 366 366 365 364 365 368 369 369 369 369 368 368 369 369 369 369 369 369 368 368 368 367 366 365 366 365 364 364 364 363 361 361 361 361 360 360 360 360 359 359 357 354 350 346 343 339 336 334 334 335 337 338 340 342 343 343 345 346 349 352 353 352 354 356 357 357 355 352 349 349 348 347 346 345 344 343 342 339 339 341 339 336
366 366 364 364 366 366 365 366 367 368 367 368 367 367 367 367 366 366 366 366 366 366 366 366 366 366 365 364 363 362 362 361 360 360 361 360 359 358 356 353 351 348 346 344 339 334 333 331 330 330 330 330 330 330 331 331 331 331 332 332 333 335 338 338 338 343 348 351 352 353 353 351 350 348 347 347 346 344 343 341 339 339 341 339 335
366 366 365 365 366 365 365 366 366 366 366 367 366 366 365 365 364 363 363 363 363 364 364 364 363 363 363 362 361 361 360 358 357 356 354 351 348 345 341 337 335 333 332 331 330 329 329 329 329 329 329 329 330 330 331 331 331 331 331 332 332 332 333 335 337 340 343 345 347 349 351 351 350 349 347 346 345 344 342 341 339 339 339 337 335
364 364 364 365 365 365 365 366 365 365 365 365 365 364 364 364 363 363 362 360 359 358 357 355 354 352 352 352 351 350 348 346 345 342 339 336 333 331 330 329 329 328 328 328 328 328 328 328 329 329 330 330 331 331 331 331 331 331 331 331 332 332 332 334 336 337 340 342 344 346 348 349 350 349 347 345 344 343 341 340 338 338 338 335 333
362 361 361 363 364 364 364 365 365 364 363 363 362 361 361 360 359 357 355 354 352 349 346 343 339 336 335 335 334 333 332 331 331 330 329 329 328 328 328 328 328 327 327 328 328 328 328 328 328 329 330 330 330 330 330 330 330 331 331 331 331 332 332 332 333 334 336 339 341 342 344 346 347 349 348 346 343 341 340 340 338 337 336 335 332
357 357 358 360 361 361 362 362 363 364 363 360 357 355 353 350 348 347 345 344 340 337 334 331 329 328 328 328 328 328 328 328 328 327 328 328 327 327 327 327 326 326 326 326 326 326 326 327 328 328 329 329 329 328 329 329 329 329 330 330 330 330 331 331 332 332 334 336 337 340 342 343 344 346 347 346 343 340 339 338 338 337 336 334 331
352 353 354 355 356 356 356 355 355 355 354 352 349 347 345 343 342 342 340 337 333 329 326 326 326 326 326 327 327 327 326 327 327 327 327 327 326 325 325 325 325 325 325 325 325 325 326 326 326 325 325 326 326 326 327 328 329 329 329 329 330 330 330 330 331 331 333 333 335 337 339 341 343 344 345 345 343 340 337 337 336 335 333 331 330
350 350 350 351 351 352 351 348 346 346 345 344 343 343 342 341 339 338 336 334 330 327 325 324 325 326 326 325 325 325 325 326 326 326 325 325 324 324 324 324 325 325 325 325 324 325 325 325 324 324 324 324 325 326 327 328 328 328 328 328 329 329 330 330 330 331 332 333 334 334 335 337 339 342 344 344 342 339 337 336 335 333 331 329 328
346 345 346 346 347 347 347 345 343 343 343 342 342 342 342 341 340 337 335 333 333 332 329 326 325 325 325 324 324 325 325 325 324 324 325 324 323 324 325 325 325 325 324 323 324 324 324 324 324 323 323 323 325 327 327 326 327 327 327 328 328 329 329 330 330 330 331 332 334 334 334 334 335 337 339 342 341 338 334 333 332 331 329 328 327
344 343 344 345 345 345 345 344 343 342 342 341 341 341 341 340 340 338 337 337 337 337 335 332 329 327 327 326 325 324 324 324 324 324 324 324 323 325 325 325 325 325 324 324 324 324 324 324 324 323 322 323 325 325 325 325 326 326 327 327 327 327 327 328 328 329 330 331 333 334 334 334 334 335 337 341 341 338 332 329 328 328 327 326 326
342 343 344 344 344 343 343 342 342 341 341 341 341 341 341 340 339 339 338 338 337 337 335 335 334 333 332 331 330 327 325 323 323 324 324 323 323 324 324 325 325 325 324 324 325 325 325 324 323 321 321 322 323 323 322 323 324 324 325 325 325 326 326 327 327 328 329 329 330 332 333 334 334 335 335 336 337 336 332 328 326 325 325 325 324
340 341 342 342 342 341 341 340 340 340 339 339 339 339 339 338 339 338 337 336 335 334 334 335 335 335 335 334 333 332 329 327 327 328 327 325 324 323 324 326 327 326 325 325 325 324 324 323 322 321 321 321 321 321 321 321 321 322 323 323 323 323 324 325 326 327 327 327 327 328 329 330 332 333 332 330 329 329 329 326 325 324 324 323 322
339 339 340 340 340 340 339 339 339 338 338 338 338 338 337 337 337 337 337 336 336 336 336 337 336 335 335 335 334 334 333 332 332 332 331 330 329 327 326 327 329 327 325 325 325 323 321 321 321 321 320 320 320 320 320 320 320 321 322 322 321 321 321 321 323 324 324 324 324 324 324 325 325 326 326 324 324 324 324 323 322 321 320 319 319
338 338 338 338 338 338 338 338 338 337 338 337 338 338 337 336 336 336 336 336 336 336 337 336 336 335 335 335 334 334 334 333 333 333 332 332 332 330 327 327 329 328 326 324 324 322 320 320 320 320 320 319 319 320 319 319 319 320 320 320 321 320 321 321 321 321 322 322 322 321 321 321 320 320 319 319 319 321 321 321 319 318 317 318 319
336 335 336 336 336 336 336 336 337 337 337 337 337 337 336 336 336 336 336 336 335 335 335 335 335 335 334 334 334 334 334 333 333 333 333 332 332 331 330 328 328 328 327 326 324 322 320 319 319 320 319 319 319 319 319 319 319 319 319 320 320 320 320 321 321 321 322 322 322 322 321 321 321 320 319 319 318 318 318 319 319 319 320 320 321
333 333 333 333 333 333 333 333 334 334 335 335 336 335 335 335 335 335 335 335 334 335 334 334 334 335 335 334 334 334 333 333 332 332 332 332 331 331 331 330 328 326 326 327 326 325 323 321 319 319 319 319 319 319 319 319 319 318 318 318 319 319 319 319 319 320 320 320 320 320 320 320 320 320 320 320 320 318 317 318 319 319 319 318 319
331 331 330 330 330 329 329 330 330 330 331 331 332 332 333 334 333 333 333 332 332 332 333 333 333 333 333 333 333 333 333 333 332 332 332 332 331 331 331 331 329 327 326 326 327 327 326 323 320 319 319 319 319 319 319 318 318 318 318 318 318 318 318 318 319 318 318 318 318 318 318 318 318 318 319 320 320 319 318 318 319 319 318 317 318
328 328 328 327 327 327 327 327 327 326 326 326 326 327 328 328 329 329 328 328 328 328 328 329 329 329 329 329 330 331 331 331 332 332 332 331 331 331 331 331 330 328 327 327 327 327 327 326 324 321 319 319 318 319 319 319 319 318 318 318 318 318 318 318 318 318 318 318 318 318 318 318 318 318 318 318 318 318 318 318 318 318 318 318 319
326 325 325 325 325 325 325 325 324 324 323 324 324 324 324 324 324 324 323 324 323 324 324 323 324 324 324 324 325 326 327 328 329 330 330 330 330 331 331 330 329 329 328 329 328 327 326 326 325 323 322 321 320 319 319 319 319 320 320 320 320 320 319 318 318 319 319 319 319 319 319 319 318 318 319 319 319 320 320 320 320 319 319 319 318
322 322 321 321 320 320 320 321 321 321 321 321 322 322 322 322 322 321 321 321 321 320 320 320 320 320 321 322 322 323 325 326 327 327 328 329 329 330 331 330 330 329 329 328 328 327 326 325 324 324 323 322 322 321 321 320 320 320 320 321 322 323 322 321 321 321 322 322 323 322 322 322 322 322 322 322 322 322 321 321 319 319 318 318 317
320 318 318 317 316 315 315 315 316 316 318 319 319 320 319 320 320 319 319 319 319 319 319 319 319 319 320 320 320 321 322 324 325 326 326 327 327 328 329 330 330 330 329 328 328 328 326 325 325 325 325 324 323 322 321 321 321 321 321 322 324 325 324 324 323 322 323 323 323 323 323 323 323 323 322 322 321 320 319 319 318 317 317 317 317
Wind_Speed
51 52 52 52 51 49 46 44 42 41 40 40 40 39 38 37 36 35 34 32 31 30 28 27 26 25 25 25 24 24 23 22 22 21 21 21 21 21 21 22 23 22 21 21 21 21 21 20 19 19 23 24 24 24 24 25 24 24 24 24 22 20 19 22 23 21 18 16 16 17 17 16 16 17 17 19 20 20 18 15 14 15 15 15 14
51 52 53 52 52 50 48 46 44 43 42 41 40 40 39 38 37 36 35 34 32 31 30 29 28 27 27 26 26 25 25 24 24 23 23 23 23 23 22 22 23 23 23 23 23 23 23 22 21 20 22 26 26 26 26 26 27 26 25 24 23 22 21 21 22 22 20 19 19 20 19 18 18 18 19 20 19 18 17 17 17 17 16 16 16
50 51 52 53 52 51 49 47 46 46 45 44 42 41 40 38 38 37 36 35 34 33 32 31 30 29 29 28 28 27 26 26 25 25 25 25 26 26 25 25 24 24 24 25 24 24 25 24 23 22 22 25 27 29 28 28 28 28 27 26 24 23 22 22 23 23 21 20 20 22 21 20 20 20 20 19 18 17 17 18 19 18 18 17 17
49 51 52 53 52 52 50 48 47 47 46 45 43 42 41 39 39 38 37 36 35 34 33 32 31 31 31 31 30 30 29 28 27 27 27 27 27 27 27 27 27 26 26 26 26 26 26 26 25 24 24 25 27 29 30 30 30 29 29 28 27 26 24 24 24 23 22 21 22 23 23 23 22 21 20 19 19 19 20 20 20 19 18 17 17
49 50 51 52 52 52 51 50 49 48 47 46 44 43 42 41 40 39 38 37 36 35 34 33 32 32 33 33 32 32 32 31 30 29 29 29 29 28 28 28 28 28 27 27 27 27 28 27 26 25 25 26 27 28 30 31 31 31 30 29 28 27 26 25 25 24 25 24 22 23 24 25 26 25 23 23 22 22 22 22 21 20 18 17 17
49 50 51 52 53 53 53 52 51 49 48 46 45 44 43 42 41 40 39 38 37 36 35 35 34 34 34 34 34 33 33 33 32 32 31 31 31 31 30 30 30 29 29 28 28 29 29 29 28 27 27 27 27 27 28 29 30 31 31 30 29 28 28 27 26 25 26 26 24 23 24 26 27 27 26 26 25 24 23 22 21 21 20 19 17
47 49 50 51 53 53 53 52 51 50 48 47 46 45 44 43 42 41 40 39 38 37 37 36 36 35 35 35 35 35 35 35 35 34 33 33 33 33 33 33 32 32 31 31 30 30 30 30 30 29 29 29 28 28 27 28 29 31 31 31 30 30 29 28 28 27 27 27 26 25 25 25 26 27 26 24 24 24 23 23 23 22 21 20 18
45 46 48 50 52 53 53 52 51 50 49 47 46 45 45 44 43 42 41 40 39 39 39 38 38 37 37 36 36 36 37 37 37 36 36 35 34 35 35 35 35 34 34 34 33 32 32 32 32 32 31 31 30 30 29 28 28 29 30 31 31 31 31 30 30 30 29 29 29 28 26 26 27 27 26 25 26 26 25 25 24 23 22 21 20
43 45 46 49 50 51 51 51 51 50 49 48 47 46 46 45 44 43 42 41 40 40 40 40 39 39 39 38 38 38 39 39 39 38 38 37 36 36 36 36 36 36 36 36 35 35 35 35 35 35 34 34 32 31 31 29 29 29 29 30 32 32 32 32 32 32 32 32 32 31 29 29 29 29 29 30 29 28 26 25 24 23 21 22 22
44 45 46 47 48 48 49 50 50 49 49 48 47 46 46 45 44 43 43 42 41 40 40 40 41 41 40 40 39 39 40 40 40 40 39 38 37 37 37 37 37 37 38 37 37 37 37 37 37 37 36 35 34 33 33 32 31 30 30 30 32 33 33 34 34 34 34 34 34 33 33 34 32 31 31 32 30 29 26 25 25 23 21 22 24
44 45 46 46 46 46 47 48 49 49 49 48 47 46 46 45 45 44 43 42 41 41 40 40 41 41 41 41 40 41 41 41 41 41 40 39 38 38 39 39 38 38 39 39 39 39 38 39 39 39 38 37 37 36 35 34 33 32 31 31 32 34 35 35 35 35 35 36 35 35 36 37 35 33 32 31 30 29 28 26 25 24 24 25 25
44 45 45 45 46 46 46 45 47 48 48 48 48 47 46 45 45 44 44 43 42 41 41 41 41 41 41 41 41 41 41 40 40 40 40 40 39 39 39 40 40 40 39 39 39 39 39 40 40 40 40 40 39 38 37 36 34 33 32 32 33 34 36 36 36 36 36 37 37 37 37 37 37 35 33 31 30 29 28 27 26 26 26 27 27
43 45 46 46 46 46 46 45 45 45 46 46 47 46 46 46 46 45 44 43 43 42 42 41 41 41 41 41 41 41 40 40 39 39 38 38 38 38 39 40 41 41 40 40 39 40 40 41 41 41 41 41 41 40 39 37 36 34 33 33 33 35 36 37 37 37 37 38 38 38 38 37 37 37 34 30 29 29 29 29 28 28 27 28 27
43 44 45 47 47 46 45 45 44 44 43 43 44 46 47 47 46 45 44 44 44 44 43 42 42 42 42 42 41 41 41 40 39 38 38 37 37 37 38 39 41 42 42 41 41 40 40 40 41 42 41 42 42 42 41 39 37 36 35 35 36 36 37 37 38 39 39 40 41 40 38 37 37 36 33 30 29 30 31 30 29 29 29 27 25
42 44 45 46 48 48 46 45 44 44 43 42 43 44 45 46 45 45 45 45 45 45 44 44 43 43 43 43 43 43 43 41 40 40 39 37 36 36 37 39 41 42 42 43 43 42 42 41 42 42 42 42 43 42 42 41 40 39 39 39 39 39 39 40 40 40 41 41 42 41 39 38 38 37 34 31 30 30 31 30 28 27 28 27 26
41 42 43 45 48 49 48 46 44 43 42 42 43 43 44 45 45 45 45 45 45 45 45 45 45 44 44 43 44 45 45 44 43 42 41 40 38 37 37 39 40 42 42 43 44 44 44 43 43 43 43 43 42 42 42 42 42 42 43 43 43 42 43 43 42 42 42 41 42 42 41 40 39 38 36 34 32 30 29 29 29 29 30 30 30
41 42 42 42 45 48 49 48 46 44 43 43 43 43 43 43 44 44 45 46 46 46 46 46 45 45 45 45 45 46 46 46 45 44 43 41 40 39 39 39 40 41 42 43 43 45 46 46 46 46 46 45 44 43 43 43 44 45 46 46 46 46 47 46 44 44 44 44 43 43 43 42 40 39 38 36 34 31 31 33 34 34 34 34 34
38 41 42 41 41 44 47 49 47 45 44 43 43 43 43 43 43 43 45 45 46 46 46 46 46 47 47 47 47 47 47 46 46 45 43 40 39 39 40 40 40 41 42 42 42 44 45 46 47 47 48 47 46 44 44 44 45 47 48 48 48 50 51 48 46 46 47 47 46 46 46 45 43 42 41 40 37 35 36 38 38 37 38 38 37
37 38 40 40 39 40 43 46 47 47 45 44 43 42 42 42 42 42 43 44 45 45 45 46 46 47 47 48 47 48 47 46 45 45 43 40 37 35 36 39 42 42 42 41 42 43 44 46 47 48 48 48 46 46 45 45 47 48 48 49 51 53 52 49 48 49 49 49 49 49 49 48 47 46 45 43 41 40 40 40 40 41 41 41 39
35 36 37 37 38 37 39 42 45 46 46 44 42 42 41 41 41 41 41 42 42 43 44 45 45 45 46 46 46 46 46 45 44 43 42 41 38 35 34 37 40 41 40 41 42 43 44 45 46 47 47 47 46 45 46 46 47 48 49 51 54 55 52 50 51 51 50 51 52 51 51 50 50 50 49 47 45 44 43 43 43 44 44 43 41
30 32 34 36 37 36 36 37 40 43 44 43 42 41 41 40 40 39 39 39 39 40 41 43 44 44 43 43 43 43 43 43 42 41 40 39 38 37 38 39 39 38 39 41 43 44 44 43 43 45 45 46 46 46 46 47 47 47 50 53 55 54 51 51 52 52 52 52 52 53 52 52 52 53 53 52 51 50 48 48 47 47 47 46 44
27 28 30 33 36 36 35 34 35 38 40 41 41 40 40 39 38 37 37 37 37 38 39 40 41 43 42 41 40 40 40 39 39 38 37 37 37 38 40 41 41 39 40 42 44 44 44 42 41 42 43 44 45 46 47 47 46 47 50 52 53 53 52 52 53 53 53 52 52 54 55 55 55 56 56 57 57 55 54 53 52 50 50 49 47
22 25 28 29 32 35 35 34 33 35 37 39 39 39 38 37 37 36 35 35 35 37 38 38 39 40 41 41 39 38 37 36 35 34 34 33 33 34 35 36 36 37 40 42 42 42 41 41 41 41 42 44 44 45 46 46 46 48 49 49 49 50 51 53 54 56 56 54 54 56 58 59 59 59 60 60 60 59 58 57 56 54 53 51 49
16 21 26 28 29 31 33 34 33 33 34 37 37 37 36 36 35 34 34 34 34 35 36 37 37 38 38 38 38 36 34 31 29 29 29 29 29 29 29 29 29 30 33 35 35 35 35 35 35 36 37 39 40 41 43 44 45 47 47 47 47 47 49 53 56 58 57 57 58 60 61 62 61 61 61 61 61 60 59 59 59 57 55 54 51
15 16 20 25 29 30 31 32 32 32 33 34 35 34 34 34 33 32 32 32 33 34 35 35 34 34 34 34 34 33 31 28 26 25 26 27 26 26 26 26 26 27 29 30 30 31 32 32 31 31 32 33 34 36 39 40 42 43 43 44 44 45 49 54 57 58 59 60 62 64 64 63 63 62 61 60 59 59 58 59 58 56 55 53 50
15 14 15 21 27 30 30 30 30 30 31 31 31 30 31 31 30 30 30 31 32 32 32 32 31 30 29 29 29 28 27 27 26 27 27 27 25 24 24 25 26 28 31 32 32 33 33 33 33 34 35 35 36 38 40 41 41 41 42 42 43 45 49 52 54 58 61 63 64 66 65 64 63 61 60 59 59 59 59 59 57 55 53 52 49
14 14 14 18 24 28 28 28 27 27 27 27 26 26 26 26 27 27 29 29 30 30 30 29 29 28 27 26 25 24 24 26 27 27 26 26 25 25 25 25 25 27 31 32 33 34 35 35 36 37 38 40 40 41 42 43 43 43 44 44 45 47 49 50 52 56 60 63 65 66 65 64 61 60 60 60 60 59 59 58 57 54 52 51 49
10 12 13 17 21 23 23 23 23 22 22 22 22 23 22 22 23 26 27 28 28 29 28 27 27 27 26 24 23 23 24 26 26 26 26 25 26 26 25 23 21 21 23 25 26 28 29 31 34 35 37 40 41 42 43 45 46 47 48 49 50 51 52 53 53 55 58 62 65 65 64 62 61 60 60 59 59 59 58 58 56 53 50 50 50
10 12 13 16 19 20 18 18 18 19 20 21 22 22 22 22 23 24 25 25 25 25 25 25 25 26 25 23 22 23 24 26 26 27 26 25 24 23 22 20 19 18 19 19 20 21 22 25 27 29 32 34 36 38 41 43 46 48 50 52 54 56 57 57 58 59 61 63 65 64 61 58 57 56 56 57 58 58 58 57 56 52 50 51 51
12 13 14 15 17 18 18 17 17 18 20 21 22 22 22 22 23 23 23 23 23 22 22 22 23 24 23 22 20 20 20 21 22 22 21 20 19 19 18 18 19 20 21 22 23 24 26 28 29 30 32 33 35 38 40 42 45 48 50 52 54 57 59 61 62 64 64 66 67 65 60 57 56 55 55 56 57 57 57 59 58 55 54 55 55
13 14 15 16 15 16 16 18 19 19 20 21 23 23 23 23 23 21 20 21 21 22 22 21 22 22 22 21 20 19 17 17 16 16 15 15 15 16 16 18 19 21 24 26 27 27 28 29 29 29 30 31 33 35 37 39 42 46 49 52 54 57 59 61 63 64 65 66 67 65 63 62 61 59 58 59 59 58 58 59 60 59 58 59 58
12 13 14 15 15 14 15 18 20 20 19 22 24 25 25 24 22 19 17 18 18 20 20 20 20 21 20 19 19 18 16 15 15 14 15 15 16 17 18 19 21 22 23 24 24 23 23 23 23 23 24 25 27 28 29 31 33 36 40 45 49 52 55 58 60 61 63 65 66 66 65 65 64 63 62 62 61 60 60 61 61 61 60 60 60
11 11 12 13 15 16 16 19 20 18 17 22 25 24 25 25 23 20 18 17 16 17 17 15 15 15 16 15 14 13 13 13 14 14 14 15 15 16 16 16 16 17 18 18 18 18 19 20 21 21 23 24 26 27 29 29 31 33 35 38 42 46 49 53 55 57 60 63 64 65 66 66 65 64 64 64 63 62 62 63 64 63 62 61 61
12 13 13 14 17 18 17 18 19 16 16 21 24 22 22 23 23 22 21 18 16 15 13 11 9 8 8 9 8 9 9 10 10 11 10 10 11 11 11 11 11 13 14 15 15 16 17 18 19 20 22 23 25 27 28 29 31 33 35 37 40 43 45 48 50 54 58 60 62 64 65 66 65 64 63 64 64 64 64 64 65 65 64 64 62
12 14 14 15 18 19 17 16 16 15 16 20 21 19 18 18 17 18 18 16 14 13 11 10 8 7 5 6 5 5 5 5 5 5 6 6 7 8 9 10 10 10 12 12 13 14 15 16 18 19 20 22 23 24 27 28 30 32 34 36 39 41 43 45 47 50 53 56 59 61 63 64 65 65 66 66 66 67 68 69 68 68 68 66 63
12 14 14 15 17 18 17 17 16 16 17 19 18 17 17 16 15 15 14 13 13 13 12 11 11 10 9 8 7 7 6 5 5 5 5 6 6 7 7 8 8 9 10 11 12 13 15 16 18 19 21 22 24 26 28 30 31 33 34 36 38 40 42 44 45 46 48 52 56 59 60 61 63 65 66 66 66 67 69 70 71 71 70 67 65
12 13 13 13 14 15 16 17 18 18 19 18 18 18 19 19 17 14 13 12 12 13 12 12 11 10 10 8 7 5 4 3 4 3 3 3 4 5 5 6 8 9 10 12 14 15 17 18 19 22 25 27 29 30 31 32 33 34 36 38 39 42 43 45 45 45 46 48 51 53 56 58 61 63 65 65 64 64 65 67 69 70 69 67 64
10 11 10 9 10 12 15 18 20 21 21 21 19 19 19 18 15 12 10 10 10 11 11 10 9 9 8 6 5 3 2 1 1 1 1 3 5 7 8 8 9 10 12 14 16 16 16 17 20 24 27 29 30 31 31 31 32 34 36 38 39 40 41 42 42 43 45 47 49 49 50 53 55 57 60 62 62 63 68 71 71 69 67 65 63
10 10 10 10 10 13 15 17 18 19 20 20 18 16 15 13 11 10 9 8 8 8 8 7 6 6 5 4 3 3 2 1 1 2 4 6 6 6 6 7 8 10 12 14 15 14 14 17 21 24 26 28 29 29 29 29 30 33 37 40 40 40 39 38 38 38 40 44 47 46 44 46 48 48 50 54 55 55 61 67 69 69 68 64 62
15 14 14 13 13 14 15 16 15 16 17 17 16 14 12 10 10 10 10 8 6 4 4 3 4 4 4 3 3 3 2 3 3 3 4 5 6 5 5 6 8 9 11 13 13 13 14 17 21 23 23 25 26 27 28 30 32 34 35 36 37 37 35 35 36 35 33 35 40 42 42 41 40 39 43 52 56 52 46 45 50 57 62 60 57
16 16 16 15 15 16 17 18 17 16 16 16 16 15 14 13 12 11 9 7 4 3 3 5 5 6 6 6 5 5 5 5 5 4 3 5 6 5 5 6 7 8 10 11 11 12 14 17 20 20 20 21 22 24 27 29 31 33 33 33 34 34 33 31 31 28 24 21 24 31 35 36 37 37 34 37 49 54 50 42 38 39 43 47 47
16 17 18 18 17 17 18 19 20 19 17 17 16 15 15 15 14 13 11 9 5 3 4 6 7 8 8 9 9 9 8 8 7 6 6 7 8 8 7 6 5 6 8 9 10 12 15 16 18 18 17 16 17 20 23 25 26 28 31 34 36 38 38 37 36 32 28 26 23 16 9 4 13 20 16 14 25 39 47 47 41 36 35 36 34
15 17 19 19 18 18 17 17 18 18 17 17 16 15 15 15 14 14 13 12 10 8 8 8 7 8 9 9 8 8 9 9 9 9 9 10 11 12 10 7 4 4 7 8 9 12 14 15 15 16 16 15 15 17 19 20 19 20 23 27 31 34 37 39 41 40 40 43 45 44 41 38 33 27 26 28 30 34 39 41 39 37 35 30 24
15 16 17 18 18 17 16 15 15 15 15 14 15 15 15 15 15 15 15 15 15 15 15 14 11 9 8 7 6 5 4 4 5 7 9 11 13 13 11 8 5 4 6 6 7 9 12 13 14 14 15 15 15 16 16 17 17 16 17 19 21 23 26 28 32 34 36 37 40 42 42 43 45 45 44 41 39 37 35 33 32 33 31 27 23
16 16 16 16 15 14 13 12 12 12 11 10 10 11 11 12 12 12 12 12 12 13 13 13 11 10 9 8 7 6 5 4 4 3 3 7 10 12 12 10 7 5 5 5 5 7 9 11 12 13 13 13 14 15 15 17 17 16 16 17 18 20 21 21 22 22 23 24 27 30 33 34 35 35 35 34 32 31 29 26 25 24 23 21 20
18 17 16 15 14 14 12 10 8 6 6 6 6 6 6 7 7 7 7 7 7 7 7 7 6 6 6 6 7 6 6 7 6 4 2 1 3 6 10 12 11 7 5 4 5 5 7 8 9 11 11 10 11 12 13 14 15 16 17 19 20 22 22 22 22 23 23 24 26 29 31 32 33 33 32 30 28 26 25 22 20 18 17 16 15
18 17 17 16 16 15 12 8 6 4 4 3 3 3 3 4 3 3 3 2 2 2 3 3 3 4 4 5 7 7 6 6 8 8 6 4 3 1 3 7 9 8 6 5 5 5 6 6 6 7 8 7 7 9 10 12 13 15 16 18 20 21 22 23 24 25 26 26 28 30 31 32 32 32 32 30 27 23 21 18 15 14 12 11 11
20 19 18 16 15 14 12 8 6 5 6 7 7 7 7 5 4 4 3 3 2 2 2 3 3 4 5 5 6 7 7 6 7 9 8 6 5 5 3 4 5 5 5 6 6 7 7 6 5 5 5 4 4 5 7 8 9 10 12 14 15 17 19 20 21 22 23 23 24 26 27 28 28 28 26 25 22 19 17 14 12 10 9 8 9
19 18 17 15 14 13 11 9 8 9 11 12 13 14 13 12 11 11 11 10 10 10 9 8 8 8 7 6 5 4 5 6 6 8 8 8 7 7 7 7 6 4 3 3 6 7 7 6 6 5 4 4 4 5 5 7 8 8 9 10 11 11 11 12 14 15 16 16 18 19 19 20 21 20 19 18 17 15 14 13 12 11 12 13 13
18 17 17 17 16 15 14 13 13 14 15 15 15 15 15 15 15 15 15 15 16 17 17 16 16 15 14 13 12 10 7 6 6 7 8 9 9 9 9 10 9 7 7 7 8 9 9 9 8 8 7 6 6 7 7 7 8 9 10 10 10 10 9 9 8 8 8 8 9 9 10 10 11 12 12 11 11 11 12 12 12 13 13 13 13
19 19 19 20 20 19 18 18 19 19 19 19 18 18 17 17 17 17 17 17 18 18 18 18 18 17 17 17 16 14 12 9 8 7 8 9 10 11 11 10 10 9 10 11 12 12 11 11 11 11 10 9 9 8 8 7 7 8 10 10 10 9 9 8 7 7 6 6 6 5 4 4 5 6 6 6 7 7 8 10 10 11 11 11 11
Wind_Direction
218 218 218 219 220 221 222 223 223 224 225 225 226 226 225 225 226 228 229 230 230 229 230 230 228 226 227 230 232 234 236 237 238 234 230 231 232 232 233 232 235 240 243 247 249 250 252 252 247 232 216 214 215 215 215 220 227 230 232 236 240 241 236 233 237 241 240 236 230 231 236 241 244 245 248 253 259 267 271 271 272 273 270 266 263
219 219 219 220 221 222 223 224 223 224 224 225 227 227 227 226 227 227 228 230 232 231 230 230 230 229 228 230 233 236 238 238 239 239 236 234 234 235 235 235 235 237 240 244 246 249 252 253 253 247 231 222 220 220 221 223 229 233 236 238 240 241 240 238 239 241 240 235 230 231 234 237 240 243 247 253 259 267 271 274 278 277 272 266 261
220 220 220 221 222 223 224 225 225 224 224 225 227 227 228 228 228 228 229 231 232 233 232 230 230 231 231 232 233 236 240 240 240 241 241 239 238 238 239 239 238 238 240 243 244 247 251 253 253 253 249 239 230 225 226 228 232 236 240 242 243 244 243 242 241 243 243 238 232 234 238 239 241 244 248 254 261 264 267 272 276 277 274 268 264
220 221 221 222 222 222 224 225 226 225 225 226 227 228 229 229 229 230 230 231 232 233 234 231 230 231 232 233 234 236 239 241 241 241 242 242 242 242 242 242 242 242 242 244 245 246 249 253 255 254 253 249 241 233 229 230 235 239 242 244 245 246 245 244 244 245 245 242 235 234 237 239 243 247 248 253 259 262 265 269 271 272 272 271 269
220 221 221 222 223 222 223 224 225 226 226 227 228 228 228 230 231 231 231 232 232 233 233 233 231 231 233 235 237 238 239 241 242 242 243 243 244 244 244 244 245 244 244 244 246 248 249 252 255 255 252 249 246 241 236 235 237 239 243 245 247 247 247 246 246 245 246 246 242 237 236 236 240 244 247 250 255 259 261 264 267 268 268 267 266
220 221 222 222 223 223 223 223 224 226 227 227 228 228 228 230 231 231 231 231 232 232 233 234 234 234 234 236 238 240 241 242 243 244 244 244 245 246 246 246 246 247 246 245 245 247 250 252 253 253 252 250 248 247 244 243 242 242 244 247 249 249 248 248 248 246 246 247 246 242 239 238 239 240 243 247 250 253 257 259 263 265 264 262 261
220 221 221 222 223 223 223 224 225 226 228 228 228 229 229 229 230 232 232 231 231 232 233 235 237 238 238 238 239 240 241 242 243 244 244 245 246 246 247 247 247 247 248 248 247 247 250 253 253 253 253 253 252 251 248 247 247 246 247 248 250 250 250 251 250 249 248 248 247 245 243 242 241 242 244 246 247 250 253 256 258 260 259 257 256
219 220 221 222 223 223 224 225 226 227 228 228 229 229 229 229 229 231 233 232 232 233 234 236 239 240 240 241 241 242 241 241 242 242 242 244 245 246 247 248 248 248 248 249 249 248 248 250 253 254 254 255 255 254 252 250 249 249 249 248 248 249 251 252 251 251 252 250 249 249 246 243 242 242 242 241 241 245 251 255 259 261 259 256 254
218 219 220 222 223 224 224 225 226 226 227 227 228 229 229 229 229 230 231 233 235 235 234 236 239 240 241 242 242 242 241 241 241 241 242 243 244 246 246 247 248 249 249 249 249 249 248 249 251 254 256 257 257 257 256 255 253 252 251 250 248 248 249 250 250 251 251 251 252 251 248 244 241 240 240 240 243 249 254 256 258 261 260 256 255
218 218 219 221 223 224 224 224 225 225 226 227 228 229 229 229 229 229 230 233 235 236 235 235 236 238 240 241 241 241 241 241 242 242 242 243 244 245 245 247 248 249 249 249 248 249 249 250 252 254 256 258 258 258 258 257 257 256 255 254 252 250 250 249 250 250 250 251 253 252 250 249 246 242 243 247 250 252 251 251 254 257 256 254 254
218 218 219 221 224 225 225 224 225 225 226 227 228 229 229 229 228 228 230 232 235 236 237 236 236 237 239 240 241 241 242 243 243 243 243 244 244 244 245 246 248 249 250 250 249 250 250 251 252 253 254 256 257 258 258 258 258 257 256 255 254 253 251 251 251 252 251 251 253 253 253 255 254 249 247 248 249 249 249 249 251 250 248 249 251
219 220 220 221 224 226 226 225 225 226 226 226 228 229 229 228 228 228 229 231 233 236 238 238 237 236 237 239 240 242 244 245 245 244 244 244 244 244 245 246 247 249 250 252 252 252 251 251 252 253 254 255 256 258 258 258 258 258 257 256 255 254 252 252 253 254 254 254 254 255 255 258 259 255 250 248 248 249 248 246 246 247 247 248 249
219 221 220 221 224 226 227 227 226 226 227 227 228 228 228 228 228 228 230 231 233 235 238 239 239 237 237 238 240 243 246 247 246 246 246 246 245 244 244 246 247 249 251 253 254 254 253 252 252 253 255 256 257 257 257 257 257 257 256 256 256 255 253 253 254 256 257 257 257 258 259 259 259 259 256 252 250 249 246 244 244 244 244 245 247
220 222 222 222 224 226 227 229 228 228 229 228 228 228 228 228 229 229 230 231 231 234 236 238 239 239 238 239 241 244 247 249 249 248 248 247 246 245 245 246 247 249 251 253 255 255 255 254 254 255 256 257 257 257 256 256 256 255 254 253 255 256 255 254 253 254 255 255 256 259 261 260 261 263 261 255 251 249 247 246 246 246 247 251 255
220 224 225 223 223 224 226 229 230 230 230 229 228 228 228 229 229 229 229 230 232 233 235 237 239 241 241 241 241 243 246 249 250 250 250 249 248 247 246 247 247 249 251 253 254 255 256 256 256 257 258 259 259 258 257 257 257 256 255 254 255 256 257 256 257 256 254 255 257 259 262 262 262 263 261 255 251 251 251 252 253 255 255 254 254
222 224 227 226 224 223 224 226 228 231 232 230 229 229 229 230 230 229 229 230 232 233 235 237 239 241 242 243 243 244 245 246 248 250 251 251 250 248 248 248 248 249 250 252 253 254 254 255 256 257 258 260 259 259 258 257 257 257 256 257 257 256 258 260 261 260 258 258 260 261 261 262 262 262 260 255 250 248 248 248 249 250 250 248 248
223 225 228 228 226 225 224 224 225 228 231 232 232 232 232 231 231 230 230 230 230 232 234 237 238 240 241 242 244 246 246 246 246 247 249 249 249 249 249 250 250 250 251 252 253 254 254 254 255 256 257 259 259 258 257 255 255 256 256 257 257 256 259 260 261 261 260 260 261 261 259 259 259 258 257 254 249 243 239 238 239 240 242 242 242
225 226 229 230 229 227 226 225 225 226 228 232 234 234 234 234 233 232 231 231 232 233 234 236 237 238 240 241 243 246 246 247 247 247 248 248 248 249 249 251 253 254 255 254 254 256 256 255 255 255 256 258 258 257 256 254 254 255 255 256 256 256 258 259 258 259 260 259 258 258 256 255 255 254 254 251 247 240 235 235 237 238 238 239 240
227 228 229 231 232 230 228 227 226 226 227 230 234 235 236 236 236 235 234 234 234 234 234 235 236 237 239 241 243 245 246 247 248 248 248 248 249 251 250 251 253 254 256 257 258 259 259 258 257 256 257 257 257 257 256 255 255 255 255 255 254 256 260 259 258 260 260 258 257 255 254 254 252 250 250 248 245 241 238 238 238 238 239 241 241
228 230 231 232 233 233 232 229 228 228 228 228 231 234 236 236 236 236 236 236 237 236 235 236 237 238 240 241 243 245 246 247 248 249 249 249 250 253 253 253 254 254 255 257 258 260 261 260 260 259 258 257 257 257 257 256 256 256 256 254 254 258 262 262 261 261 260 259 259 258 256 255 252 248 247 244 242 240 240 238 238 239 240 241 240
228 229 231 233 234 234 234 232 230 230 230 229 229 232 235 235 235 236 237 237 238 238 237 238 238 239 241 242 244 245 246 248 250 250 251 251 251 252 253 255 256 256 257 258 258 259 260 261 263 264 263 261 259 258 257 257 257 257 257 257 259 262 263 262 263 263 261 259 258 257 256 254 250 247 245 242 240 240 240 239 238 239 240 239 239
230 228 228 231 233 235 235 233 231 230 229 229 228 229 232 235 235 236 237 238 239 240 240 240 240 241 242 243 245 247 248 249 251 252 253 254 254 254 254 256 257 258 259 260 261 261 261 262 265 268 268 266 264 261 260 259 258 258 258 260 262 264 263 263 263 263 260 257 256 255 254 253 249 246 243 241 240 239 240 239 238 238 239 240 240
231 229 228 228 230 232 234 233 231 229 229 229 228 228 231 233 234 236 237 238 240 241 242 242 242 243 243 244 246 248 250 251 252 254 255 256 256 255 256 257 258 258 260 261 263 265 265 266 267 268 268 268 268 266 264 262 261 261 261 262 263 263 264 264 263 261 258 256 254 254 254 252 249 246 242 241 240 239 239 240 239 237 237 237 239
226 226 227 228 229 230 231 232 231 229 229 228 227 228 230 233 235 237 238 239 240 241 241 242 243 243 244 245 246 247 249 252 253 255 256 257 257 258 258 258 257 257 258 261 263 265 267 268 269 270 270 270 270 270 269 267 266 265 265 264 264 264 264 262 260 257 255 253 252 252 252 251 248 247 245 244 242 241 240 239 238 236 235 235 236
223 220 224 228 229 229 229 230 229 228 228 227 227 228 230 232 234 236 238 239 239 240 241 241 242 244 244 245 245 245 246 249 251 254 256 256 257 258 259 260 259 255 255 257 259 261 262 265 268 270 270 271 272 272 271 270 269 269 269 267 265 263 263 261 257 254 251 251 251 251 251 250 249 250 250 248 244 242 240 237 235 233 232 233 233
227 220 219 224 228 227 226 226 225 224 225 225 226 229 231 232 234 236 237 238 238 239 240 240 241 242 243 244 244 244 245 245 247 249 251 252 253 255 257 259 258 256 255 256 257 258 259 260 261 262 263 265 267 269 270 271 271 271 271 269 265 262 262 261 258 254 251 251 251 251 251 251 250 250 249 246 243 240 238 235 232 229 228 228 228
227 223 217 219 222 221 220 219 218 217 220 223 225 228 231 234 236 236 236 236 237 237 237 237 238 238 239 241 242 243 242 241 242 244 247 250 253 254 255 255 254 254 256 258 259 260 261 262 262 262 262 263 264 266 268 269 270 269 269 268 266 264 264 264 263 259 255 253 253 253 252 251 250 249 247 243 240 238 236 234 231 227 224 224 224
207 211 208 208 211 213 213 213 212 212 215 218 222 225 229 233 235 235 234 234 234 234 233 233 234 234 235 237 237 237 237 238 240 243 246 249 252 254 256 258 258 259 259 260 261 261 262 264 265 265 266 266 267 269 270 269 269 269 269 268 267 267 266 266 266 264 260 257 255 253 251 248 246 246 244 240 237 236 234 231 228 224 221 219 219
185 190 193 195 198 201 204 205 206 207 208 209 213 218 220 223 227 230 232 231 232 233 232 232 231 231 232 233 232 233 235 236 238 241 243 246 249 254 260 265 268 268 268 267 267 267 268 270 270 270 270 270 269 270 271 271 271 270 270 270 269 268 268 266 266 266 264 262 258 254 250 247 246 244 242 238 236 234 231 227 223 220 219 218 217
188 187 190 193 196 199 202 203 205 208 208 208 211 212 211 212 216 223 227 227 227 229 229 228 227 228 228 228 226 227 230 231 233 235 237 241 246 253 260 266 269 272 276 277 279 280 279 278 277 276 275 273 271 270 271 271 272 272 273 273 273 272 271 269 268 267 266 265 263 257 251 248 247 245 241 238 234 231 228 225 220 218 219 218 215
193 192 194 195 195 198 201 202 205 210 211 212 214 212 206 202 204 212 216 216 218 220 221 221 222 223 225 227 224 221 222 222 225 230 235 242 249 257 266 273 277 280 282 283 284 284 283 282 282 281 280 278 276 275 274 274 273 273 274 275 275 274 274 272 272 270 268 267 265 260 253 249 247 244 241 237 233 229 226 222 216 214 218 218 214
195 193 195 195 193 195 198 200 204 208 208 209 211 211 206 198 192 192 197 201 203 206 207 208 211 214 218 221 220 221 223 228 235 245 253 261 269 275 280 282 283 282 282 284 286 288 290 292 293 292 292 291 291 290 289 287 285 282 280 278 277 276 274 274 274 273 270 268 265 262 257 252 247 243 239 236 231 225 221 216 212 211 215 216 213
178 176 181 186 187 190 194 199 203 204 200 201 203 204 204 201 193 186 185 187 191 195 196 198 203 208 213 217 223 232 240 247 257 263 268 274 278 280 282 282 283 285 287 289 292 295 297 299 300 302 302 303 304 305 305 304 303 299 294 289 286 282 279 277 276 274 271 269 266 263 259 255 249 243 238 233 228 222 216 212 210 210 212 212 210
164 162 166 172 178 183 188 195 201 200 192 193 194 193 194 197 196 191 185 182 183 186 189 191 196 206 218 224 231 242 250 257 263 265 268 275 278 282 286 289 291 293 293 294 298 301 304 306 308 310 311 312 313 313 312 311 309 307 304 301 298 294 288 283 278 275 272 271 268 264 261 257 252 245 238 231 226 220 215 211 209 208 208 207 205
160 158 159 164 168 171 171 174 180 181 178 182 185 183 181 182 183 183 180 176 173 171 168 168 168 168 179 189 190 196 207 218 230 242 258 273 282 290 294 295 298 302 304 308 313 319 322 323 323 324 324 325 325 324 322 321 319 316 314 312 309 304 298 290 282 277 273 271 270 267 263 259 254 249 242 235 227 220 213 210 208 207 206 204 202
155 156 159 162 164 163 157 153 155 160 165 170 172 169 164 159 158 160 161 160 160 158 154 154 156 154 156 161 163 170 184 199 218 241 259 269 277 286 291 299 312 323 329 335 339 343 345 344 344 347 347 346 344 341 338 335 331 328 325 322 318 314 307 299 291 284 276 271 269 268 266 263 258 253 245 237 229 220 213 208 206 204 203 201 200
146 143 146 150 151 150 148 145 144 146 149 151 152 150 146 143 145 150 151 149 150 150 147 147 150 154 156 157 159 167 188 217 236 250 264 282 303 319 333 344 350 353 355 356 357 0 3 6 7 6 3 359 355 350 345 342 339 336 334 332 328 323 316 307 299 291 283 275 270 268 267 266 263 257 249 240 231 221 212 206 203 201 199 197 195
150 147 146 145 140 139 142 141 140 139 138 138 141 145 147 145 146 150 152 152 155 155 149 144 145 149 150 148 145 142 146 196 219 190 55 18 0 2 10 12 11 11 10 9 9 12 14 14 11 7 2 359 356 352 349 348 346 345 344 342 336 329 323 314 304 296 289 283 277 273 269 268 266 260 252 242 232 220 211 205 201 196 194 191 190
137 140 142 137 128 128 134 137 136 135 135 133 134 138 143 145 144 142 143 151 160 159 150 143 142 138 130 120 107 100 102 100 50 40 35 24 15 14 19 21 19 19 17 15 15 15 11 6 3 1 1 2 2 2 2 2 0 360 359 354 346 340 333 324 314 304 294 287 283 280 277 273 271 268 262 252 238 221 209 203 198 191 187 186 186
113 116 120 120 116 117 122 127 129 131 131 130 128 127 126 128 131 133 135 140 149 147 134 124 108 87 72 56 32 15 5 6 16 27 29 25 23 22 18 16 18 18 16 16 16 11 3 1 1 2 4 10 15 20 21 20 18 17 15 9 2 355 349 339 330 321 310 294 284 281 279 276 273 274 271 259 244 227 209 196 190 185 182 179 177
119 123 125 125 123 122 122 123 127 133 135 134 133 130 126 125 129 133 137 139 136 109 81 77 70 55 41 25 7 356 347 349 2 23 32 23 20 19 11 6 7 10 13 16 16 10 2 3 6 6 7 14 23 27 27 27 28 29 30 30 27 21 15 8 0 353 344 326 301 287 282 277 272 272 268 249 228 213 198 185 179 174 167 163 161
123 125 128 130 131 129 123 120 122 129 132 133 133 134 134 133 132 134 141 147 148 134 100 85 67 48 40 34 25 18 14 10 12 21 25 18 11 7 4 1 0 5 11 15 16 12 7 7 12 13 11 13 16 17 18 23 29 34 39 43 44 41 39 36 35 37 43 50 50 42 25 310 255 251 241 199 179 176 171 166 162 154 145 142 145
116 116 120 123 123 121 119 118 120 122 121 121 125 130 136 137 132 128 129 130 127 132 136 121 89 63 58 55 45 35 31 25 15 5 358 357 355 353 356 2 3 356 1 9 15 14 12 12 16 18 18 15 10 7 10 16 21 29 41 49 51 51 51 51 52 56 61 65 67 67 71 78 87 98 104 103 107 117 127 132 133 131 128 125 128
112 110 112 113 112 111 114 117 118 117 115 118 124 128 133 136 132 128 127 123 118 123 132 133 128 123 120 118 121 118 97 62 32 3 344 340 341 343 350 7 17 348 342 354 8 15 17 18 19 20 21 21 17 13 15 21 23 26 36 44 48 49 51 55 59 62 63 63 64 64 66 69 71 75 80 82 84 90 98 103 105 110 117 124 133
106 104 105 105 105 106 107 108 111 116 121 128 131 129 130 135 138 139 141 137 130 130 135 140 147 155 161 164 164 162 162 154 122 77 2 339 339 340 341 349 356 345 327 329 348 8 18 22 23 22 22 26 30 29 28 31 32 32 35 38 41 42 44 47 54 59 60 62 67 71 74 74 74 75 78 81 83 88 95 101 104 108 119 135 148
105 103 102 101 100 98 96 97 104 116 124 129 130 128 132 138 143 147 151 152 153 154 157 161 170 177 183 194 202 205 204 198 187 167 139 58 10 347 336 336 338 335 317 298 307 342 4 13 20 23 23 26 33 35 34 35 37 40 43 45 45 45 45 48 53 58 64 72 78 82 84 85 87 90 94 97 99 101 105 112 118 120 123 132 143
113 110 107 107 105 100 97 101 111 115 114 122 140 158 167 167 168 165 165 171 191 210 221 229 235 242 244 238 235 235 231 221 216 210 196 171 156 164 327 330 327 326 324 308 295 309 331 339 350 7 18 26 34 37 38 41 44 45 47 49 51 53 55 56 57 60 67 76 83 86 88 90 93 96 99 102 106 107 109 114 122 124 121 124 143
116 114 112 111 111 108 106 110 111 97 90 95 102 105 107 108 104 93 76 56 39 9 327 314 307 300 293 283 269 262 259 255 245 236 228 220 212 209 229 272 290 307 332 337 323 317 316 309 306 320 342 357 10 20 26 28 30 32 34 36 43 52 60 64 65 66 69 74 78 81 84 87 91 94 98 102 105 107 109 112 118 125 133 145 166
113 114 111 109 108 107 107 105 95 84 85 92 94 92 89 87 83 78 73 67 63 59 52 46 43 37 29 19 357 320 293 284 278 268 261 257 249 241 242 252 259 265 282 298 301 304 303 295 286 284 289 300 309 314 324 334 342 351 2 9 14 22 36 50 60 66 69 71 74 79 83 87 93 99 105 110 116 124 131 137 145 156 165 171 178
107 106 106 103 99 97 97 96 90 84 85 90 92 90 86 82 77 73 70 67 64 61 58 55 51 46 43 40 33 21 3 342 325 311 299 289 278 264 252 246 247 250 249 251 262 274 280 279 276 272 268 268 270 273 283 301 315 325 335 345 351 353 352 356 9 29 43 51 59 71 82 94 107 118 126 132 140 148 154 159 162 167 172 178 186
108 105 104 101 96 91 87 86 85 84 84 85 86 86 84 81 77 74 71 68 65 62 59 57 54 51 49 47 43 37 29 19 2 340 318 301 289 278 266 255 248 247 247 248 253 259 264 269 274 276 277 276 274 274 282 297 311 323 333 344 355 0 357 350 351 5 24 34 37 43 59 87 108 119 128 134 136 143 156 163 166 169 173 178 185